| time (UTC) | temp C | wind direction | speed KPH | gust KPH | rain 1hr cm | rain 24hr cm | rain mn cm | humidity % | barometer mb |
| 20260507092629 | -5 | 66 | 0.0 | 1.6 | 0.00 | 0.00 | 0.00 | 93 | 1011.7 |
| 20260507092130 | -5 | 66 | 0.0 | 1.6 | 0.00 | 0.00 | 0.00 | 92 | 1011.8 |
| 20260507091629 | -5 | 66 | 0.0 | 1.6 | 0.00 | 0.00 | 0.00 | 92 | 1011.8 |
| 20260507091129 | -5 | 66 | 0.0 | 1.6 | 0.00 | 0.00 | 0.00 | 92 | 1011.7 |
| 20260507090131 | -5 | 32 | 0.0 | 3.2 | 0.00 | 0.00 | 0.00 | 92 | 1011.7 |
| 20260507085629 | -4 | 23 | 0.0 | 3.2 | 0.00 | 0.00 | 0.00 | 92 | 1011.7 |
| 20260507085129 | -4 | 0 | 0.0 | 3.2 | 0.00 | 0.00 | 0.00 | 92 | 1011.7 |
| 20260507084630 | -4 | 0 | 0.0 | 3.2 | 0.00 | 0.00 | 0.00 | 91 | 1011.7 |
| 20260507083629 | -4 | 35 | 0.0 | 3.2 | 0.00 | 0.00 | 0.00 | 91 | 1011.7 |
| 20260507083130 | -4 | 36 | 0.0 | 3.2 | 0.00 | 0.00 | 0.00 | 91 | 1011.7 |
| 20260507082629 | -4 | 45 | 0.0 | 3.2 | 0.00 | 0.00 | 0.00 | 91 | 1011.7 |
| 20260507082129 | -4 | 45 | 0.0 | 3.2 | 0.00 | 0.00 | 0.00 | 90 | 1011.7 |
| 20260507081629 | -4 | 23 | 0.0 | 3.2 | 0.00 | 0.00 | 0.00 | 90 | 1011.8 |
| 20260507080629 | -4 | 26 | 0.0 | 1.6 | 0.00 | 0.00 | 0.00 | 90 | 1011.6 |
| 20260507075629 | -3 | 66 | 0.0 | 1.6 | 0.00 | 0.00 | 0.00 | 91 | 1011.7 |
| 20260507075130 | -4 | 63 | 0.0 | 1.6 | 0.00 | 0.00 | 0.00 | 91 | 1011.6 |
| 20260507074629 | -4 | 63 | 0.0 | 1.6 | 0.00 | 0.00 | 0.00 | 91 | 1011.7 |
| 20260507074130 | -4 | 35 | 0.0 | 1.6 | 0.00 | 0.00 | 0.00 | 90 | 1011.7 |
| 20260507073628 | -4 | 35 | 0.0 | 1.6 | 0.00 | 0.00 | 0.00 | 90 | 1011.6 |
| 20260507073133 | -4 | 20 | 0.0 | 3.2 | 0.00 | 0.00 | 0.00 | 90 | 1011.8 |
| 20260507072632 | -4 | 63 | 0.0 | 3.2 | 0.00 | 0.00 | 0.00 | 90 | 1011.9 |
| 20260507072132 | -4 | 12 | 0.0 | 1.6 | 0.00 | 0.00 | 0.00 | 89 | 1011.9 |
| 20260507071633 | -4 | 75 | 0.0 | 1.6 | 0.00 | 0.00 | 0.00 | 90 | 1011.9 |
| 20260507071131 | -4 | 66 | 0.0 | 3.2 | 0.00 | 0.00 | 0.00 | 89 | 1011.9 |
| 20260507070129 | -4 | 35 | 0.0 | 1.6 | 0.00 | 0.00 | 0.00 | 89 | 1012.0 |
| 20260507065124 | -3 | 40 | 0.0 | 3.2 | 0.00 | 0.00 | 0.00 | 89 | 1012.0 |
| 20260507064623 | -4 | 66 | 1.6 | 3.2 | 0.00 | 0.00 | 0.00 | 88 | 1012.1 |
| 20260507064122 | -3 | 66 | 0.0 | 3.2 | 0.00 | 0.00 | 0.00 | 88 | 1012.0 |
| 20260507063612 | -3 | 63 | 0.0 | 3.2 | 0.00 | 0.00 | 0.00 | 88 | 1012.3 |
| 20260507062113 | -3 | 5 | 0.0 | 1.6 | 0.00 | 0.00 | 0.00 | 87 | 1012.2 |
| 20260507061612 | -3 | 23 | 0.0 | 1.6 | 0.00 | 0.00 | 0.00 | 88 | 1012.4 |
| 20260507060613 | -3 | 14 | 0.0 | 0.0 | 0.00 | 0.00 | 0.00 | 90 | 1012.5 |
| 20260507055114 | -3 | 14 | 0.0 | 0.0 | 0.00 | 0.00 | 0.00 | 86 | 1012.7 |
| 20260507053604 | -3 | 14 | 0.0 | 3.2 | 0.00 | 0.00 | 0.00 | 86 | 1012.5 |
| 20260507053104 | -3 | 20 | 1.6 | 3.2 | 0.00 | 0.00 | 0.00 | 87 | 1012.6 |
| 20260507052601 | -3 | 29 | 0.0 | 1.6 | 0.00 | 0.00 | 0.00 | 86 | 1012.5 |
| 20260507052102 | -3 | 60 | 0.0 | 3.2 | 0.00 | 0.00 | 0.00 | 85 | 1012.5 |
| 20260507051601 | -3 | 35 | 0.0 | 3.2 | 0.00 | 0.00 | 0.00 | 85 | 1012.7 |
| 20260507051108 | -3 | 23 | 0.0 | 3.2 | 0.00 | 0.00 | 0.00 | 85 | 1012.9 |
| 20260507050611 | -2 | 35 | 0.0 | 1.6 | 0.00 | 0.00 | 0.00 | 84 | 1013.0 |
| 20260507050111 | -2 | 35 | 0.0 | 1.6 | 0.00 | 0.00 | 0.00 | 84 | 1012.7 |
| 20260507045103 | -2 | 35 | 0.0 | 3.2 | 0.00 | 0.00 | 0.00 | 83 | 1012.9 |
| 20260507044602 | -2 | 23 | 0.0 | 1.6 | 0.00 | 0.00 | 0.00 | 84 | 1013.0 |
| 20260507044102 | -2 | 66 | 0.0 | 0.0 | 0.00 | 0.00 | 0.00 | 83 | 1012.9 |
| 20260507043600 | -2 | 66 | 0.0 | 1.6 | 0.00 | 0.00 | 0.00 | 83 | 1013.0 |
| 20260507042601 | -2 | 75 | 1.6 | 3.2 | 0.00 | 0.00 | 0.00 | 81 | 1013.2 |
| 20260507042101 | -1 | 75 | 0.0 | 3.2 | 0.00 | 0.00 | 0.00 | 80 | 1013.2 |
| 20260507041603 | -1 | 75 | 0.0 | 1.6 | 0.00 | 0.00 | 0.00 | 81 | 1013.2 |
| 20260507041102 | -1 | 69 | 0.0 | 1.6 | 0.00 | 0.00 | 0.00 | 80 | 1013.2 |
| 20260507040601 | -1 | 14 | 0.0 | 0.0 | 0.00 | 0.00 | 0.00 | 79 | 1013.3 |
| 20260507040101 | -1 | 14 | 0.0 | 0.0 | 0.00 | 0.00 | 0.00 | 78 | 1013.0 |
| 20260507035601 | 0 | 14 | 0.0 | 1.6 | 0.00 | 0.00 | 0.00 | 77 | 1013.3 |
| 20260507035101 | 0 | 14 | 0.0 | 1.6 | 0.00 | 0.00 | 0.00 | 77 | 1013.7 |
| 20260507034603 | 0 | 7 | 0.0 | 1.6 | 0.00 | 0.00 | 0.00 | 76 | 1013.8 |
| 20260507034100 | 0 | 7 | 0.0 | 1.6 | 0.00 | 0.00 | 0.00 | 75 | 1013.5 |
| 20260507033600 | 0 | 74 | 0.0 | 0.0 | 0.00 | 0.00 | 0.00 | 74 | 1013.7 |
| 20260507033100 | 0 | 74 | 0.0 | 0.0 | 0.00 | 0.00 | 0.00 | 73 | 1013.4 |
| 20260507032601 | 0 | 74 | 0.0 | 1.6 | 0.00 | 0.00 | 0.00 | 72 | 1013.8 |
| 20260507032101 | 1 | 74 | 0.0 | 1.6 | 0.00 | 0.00 | 0.00 | 70 | 1013.7 |
| 20260507031601 | 1 | 90 | 1.6 | 1.6 | 0.00 | 0.00 | 0.00 | 69 | 1013.9 |
| 20260507031100 | 2 | 71 | 0.0 | 1.6 | 0.00 | 0.00 | 0.00 | 68 | 1013.7 |
| 20260507025601 | 2 | 90 | 0.0 | 4.8 | 0.00 | 0.00 | 0.00 | 66 | 1013.8 |
| 20260507025103 | 2 | 120 | 0.0 | 3.2 | 0.00 | 0.00 | 0.00 | 67 | 1014.0 |
| 20260507024601 | 2 | 26 | 0.0 | 3.2 | 0.00 | 0.00 | 0.00 | 66 | 1013.9 |
| 20260507024103 | 2 | 74 | 0.0 | 0.0 | 0.00 | 0.00 | 0.00 | 67 | 1013.8 |
| 20260507023600 | 3 | 74 | 0.0 | 3.2 | 0.00 | 0.00 | 0.00 | 67 | 1013.8 |
| 20260507023101 | 3 | 74 | 0.0 | 4.8 | 0.00 | 0.00 | 0.00 | 66 | 1013.7 |
| 20260507022603 | 3 | 96 | 0.0 | 4.8 | 0.00 | 0.00 | 0.00 | 65 | 1013.8 |
| 20260507022102 | 3 | 90 | 0.0 | 6.4 | 0.00 | 0.00 | 0.00 | 65 | 1013.8 |
| 20260507021601 | 3 | 145 | 1.6 | 6.4 | 0.00 | 0.00 | 0.00 | 63 | 1013.8 |
| 20260507020101 | 3 | 157 | 1.6 | 8.0 | 0.00 | 0.00 | 0.00 | 62 | 1013.5 |
| 20260507015604 | 3 | 75 | 3.2 | 8.0 | 0.00 | 0.00 | 0.00 | 62 | 1013.4 |
| 20260507014601 | 3 | 114 | 1.6 | 6.4 | 0.00 | 0.00 | 0.00 | 63 | 1013.4 |
| 20260507014100 | 3 | 78 | 3.2 | 9.7 | 0.00 | 0.00 | 0.00 | 63 | 1013.5 |
| 20260507013602 | 3 | 75 | 0.0 | 9.7 | 0.00 | 0.00 | 0.00 | 63 | 1013.7 |
| 20260507013101 | 3 | 146 | 3.2 | 8.0 | 0.00 | 0.00 | 0.00 | 61 | 1013.8 |
| 20260507012602 | 3 | 85 | 3.2 | 8.0 | 0.00 | 0.00 | 0.00 | 61 | 1013.5 |
| 20260507012103 | 3 | 147 | 0.0 | 6.4 | 0.00 | 0.00 | 0.00 | 61 | 1013.7 |
| 20260507011601 | 3 | 75 | 3.2 | 6.4 | 0.00 | 0.00 | 0.00 | 61 | 1013.7 |
| 20260507011100 | 3 | 101 | 3.2 | 8.0 | 0.00 | 0.00 | 0.00 | 61 | 1013.8 |
| 20260507010601 | 4 | 127 | 0.0 | 8.0 | 0.00 | 0.00 | 0.00 | 60 | 1013.7 |
| 20260507010100 | 4 | 112 | 3.2 | 8.0 | 0.00 | 0.00 | 0.00 | 60 | 1013.5 |
| 20260507005602 | 4 | 123 | 1.6 | 12.9 | 0.00 | 0.00 | 0.00 | 59 | 1013.5 |
| 20260507004602 | 4 | 69 | 3.2 | 6.4 | 0.00 | 0.00 | 0.00 | 59 | 1013.4 |
| 20260507004101 | 4 | 121 | 3.2 | 6.4 | 0.00 | 0.00 | 0.00 | 59 | 1013.5 |
| 20260507003559 | 4 | 102 | 4.8 | 6.4 | 0.00 | 0.00 | 0.00 | 58 | 1013.5 |
| 20260507003100 | 4 | 112 | 4.8 | 6.4 | 0.00 | 0.00 | 0.00 | 58 | 1013.5 |
| 20260507002601 | 4 | 40 | 4.8 | 8.0 | 0.00 | 0.00 | 0.00 | 58 | 1013.9 |
| 20260507002059 | 4 | 106 | 3.2 | 8.0 | 0.00 | 0.00 | 0.00 | 58 | 1013.8 |
| 20260507001600 | 4 | 154 | 3.2 | 8.0 | 0.00 | 0.00 | 0.00 | 59 | 1013.9 |
| 20260507001059 | 4 | 148 | 0.0 | 8.0 | 0.00 | 0.00 | 0.00 | 58 | 1014.0 |
| 20260507000100 | 4 | 147 | 3.2 | 11.3 | 0.00 | 0.00 | 0.00 | 59 | 1013.7 |
| 20260506235600 | 4 | 132 | 3.2 | 6.4 | 0.00 | 0.00 | 0.00 | 58 | 1013.9 |
| 20260506234547 | 4 | 171 | 3.2 | 6.4 | 0.00 | 0.00 | 0.00 | 58 | 1013.7 |
| 20260506234046 | 4 | 90 | 3.2 | 9.7 | 0.00 | 0.00 | 0.00 | 60 | 1013.8 |
| 20260506233547 | 4 | 120 | 3.2 | 9.7 | 0.00 | 0.00 | 0.00 | 60 | 1014.0 |
| 20260506233045 | 4 | 150 | 3.2 | 6.4 | 0.00 | 0.00 | 0.00 | 60 | 1014.1 |
| 20260506232547 | 4 | 139 | 3.2 | 9.7 | 0.00 | 0.00 | 0.00 | 59 | 1014.2 |
| 20260506232045 | 4 | 140 | 1.6 | 9.7 | 0.00 | 0.00 | 0.00 | 60 | 1014.2 |
| 20260506231541 | 4 | 127 | 4.8 | 8.0 | 0.00 | 0.00 | 0.00 | 60 | 1014.1 |
| 20260506230542 | 4 | 34 | 3.2 | 9.7 | 0.00 | 0.00 | 0.00 | 60 | 1014.4 |
| 20260506230038 | 4 | 105 | 3.2 | 8.0 | 0.00 | 0.00 | 0.00 | 60 | 1014.4 |
| 20260506225537 | 4 | 123 | 3.2 | 9.7 | 0.00 | 0.00 | 0.00 | 59 | 1014.3 |
| 20260506225037 | 4 | 140 | 1.6 | 9.7 | 0.00 | 0.00 | 0.00 | 60 | 1014.4 |
| 20260506224038 | 4 | 162 | 3.2 | 8.0 | 0.00 | 0.00 | 0.00 | 60 | 1014.4 |
| 20260506223536 | 4 | 119 | 3.2 | 8.0 | 0.00 | 0.00 | 0.00 | 60 | 1014.4 |
| 20260506223036 | 4 | 131 | 1.6 | 9.7 | 0.00 | 0.00 | 0.00 | 59 | 1014.3 |
| 20260506222037 | 4 | 154 | 1.6 | 11.3 | 0.00 | 0.00 | 0.00 | 60 | 1014.4 |
| 20260506221036 | 4 | 69 | 0.0 | 8.0 | 0.00 | 0.00 | 0.00 | 59 | 1014.5 |
| 20260506220536 | 4 | 126 | 1.6 | 12.9 | 0.00 | 0.00 | 0.00 | 58 | 1014.7 |
| 20260506215029 | 4 | 114 | 4.8 | 11.3 | 0.00 | 0.00 | 0.00 | 58 | 1014.5 |
| 20260506214028 | 4 | 186 | 3.2 | 8.0 | 0.00 | 0.00 | 0.00 | 59 | 1014.6 |
| 20260506213530 | 4 | 116 | 4.8 | 12.9 | 0.00 | 0.00 | 0.00 | 60 | 1014.4 |
| 20260506211547 | 4 | 79 | 3.2 | 11.3 | 0.00 | 0.00 | 0.00 | 59 | 1014.6 |
| 20260506211029 | 5 | 173 | 6.4 | 11.3 | 0.00 | 0.00 | 0.00 | 58 | 1014.5 |
| 20260506210530 | 4 | 129 | 3.2 | 11.3 | 0.00 | 0.00 | 0.00 | 58 | 1014.6 |
| 20260506210029 | 5 | 165 | 6.4 | 9.7 | 0.00 | 0.00 | 0.00 | 57 | 1014.7 |
| 20260506205529 | 4 | 117 | 1.6 | 9.7 | 0.00 | 0.00 | 0.00 | 59 | 1014.7 |
| 20260506204531 | 3 | 121 | 3.2 | 11.3 | 0.00 | 0.00 | 0.00 | 60 | 1014.8 |
| 20260506204030 | 4 | 17 | 6.4 | 9.7 | 0.00 | 0.00 | 0.00 | 61 | 1014.6 |
| 20260506203530 | 4 | 53 | 3.2 | 9.7 | 0.00 | 0.00 | 0.00 | 60 | 1014.7 |
| 20260506203031 | 4 | 108 | 4.8 | 9.7 | 0.00 | 0.00 | 0.00 | 59 | 1014.5 |
| 20260506202530 | 4 | 105 | 3.2 | 14.5 | 0.00 | 0.00 | 0.00 | 58 | 1015.0 |
| 20260506202030 | 4 | 157 | 3.2 | 14.5 | 0.00 | 0.00 | 0.00 | 59 | 1014.8 |
| 20260506201531 | 4 | 100 | 4.8 | 12.9 | 0.00 | 0.00 | 0.00 | 59 | 1014.8 |
| 20260506201032 | 4 | 121 | 4.8 | 12.9 | 0.00 | 0.00 | 0.00 | 58 | 1014.7 |
| 20260506200030 | 3 | 281 | 3.2 | 12.9 | 0.00 | 0.00 | 0.00 | 62 | 1015.0 |
| 20260506195530 | 3 | 144 | 4.8 | 12.9 | 0.00 | 0.00 | 0.00 | 61 | 1014.8 |
| 20260506195030 | 3 | 130 | 3.2 | 11.3 | 0.00 | 0.00 | 0.00 | 60 | 1015.0 |
| 20260506194529 | 3 | 147 | 8.0 | 16.1 | 0.00 | 0.00 | 0.00 | 59 | 1015.1 |
| 20260506194029 | 3 | 133 | 4.8 | 16.1 | 0.00 | 0.00 | 0.00 | 59 | 1014.7 |
| 20260506193027 | 4 | 139 | 3.2 | 12.9 | 0.00 | 0.00 | 0.00 | 59 | 1015.1 |
| 20260506192519 | 4 | 149 | 3.2 | 12.9 | 0.00 | 0.00 | 0.00 | 64 | 1014.9 |
| 20260506191517 | 3 | 96 | 4.8 | 12.9 | 0.00 | 0.00 | 0.00 | 62 | 1015.0 |
| 20260506190517 | 3 | 143 | 3.2 | 9.7 | 0.00 | 0.00 | 0.00 | 63 | 1014.9 |
| 20260506190015 | 3 | 155 | 4.8 | 11.3 | 0.00 | 0.00 | 0.00 | 62 | 1015.0 |
| 20260506185509 | 3 | 143 | 3.2 | 11.3 | 0.00 | 0.00 | 0.00 | 63 | 1015.2 |
| 20260506185004 | 3 | 177 | 3.2 | 9.7 | 0.00 | 0.00 | 0.00 | 63 | 1015.1 |
| 20260506184505 | 3 | 161 | 9.7 | 11.3 | 0.00 | 0.00 | 0.00 | 61 | 1015.2 |
| 20260506184004 | 3 | 165 | 4.8 | 11.3 | 0.00 | 0.00 | 0.00 | 62 | 1015.1 |
| 20260506183006 | 5 | 144 | 3.2 | 12.9 | 0.00 | 0.00 | 0.00 | 60 | 1015.1 |
| 20260506182503 | 4 | 150 | 6.4 | 12.9 | 0.00 | 0.00 | 0.00 | 62 | 1015.3 |
| 20260506182005 | 3 | 154 | 9.7 | 12.9 | 0.00 | 0.00 | 0.00 | 64 | 1015.3 |
| 20260506181505 | 3 | 105 | 0.0 | 12.9 | 0.00 | 0.00 | 0.00 | 64 | 1015.3 |
| 20260506181004 | 3 | 81 | 4.8 | 12.9 | 0.00 | 0.00 | 0.00 | 64 | 1015.5 |
| 20260506180502 | 3 | 132 | 3.2 | 12.9 | 0.00 | 0.00 | 0.00 | 66 | 1015.4 |
| 20260506180004 | 3 | 147 | 8.0 | 12.9 | 0.00 | 0.00 | 0.00 | 66 | 1015.3 |
| 20260506175503 | 3 | 162 | 0.0 | 14.5 | 0.00 | 0.00 | 0.00 | 67 | 1015.2 |
| 20260506175002 | 3 | 270 | 6.4 | 14.5 | 0.00 | 0.00 | 0.00 | 65 | 1015.4 |
| 20260506174502 | 4 | 173 | 1.6 | 11.3 | 0.00 | 0.00 | 0.00 | 62 | 1015.4 |
| 20260506174002 | 3 | 180 | 4.8 | 14.5 | 0.00 | 0.00 | 0.00 | 67 | 1015.5 |
| 20260506173003 | 3 | 123 | 3.2 | 11.3 | 0.00 | 0.00 | 0.00 | 68 | 1015.6 |
| 20260506172001 | 3 | 163 | 6.4 | 12.9 | 0.00 | 0.00 | 0.00 | 66 | 1015.5 |
| 20260506171501 | 3 | 154 | 3.2 | 12.9 | 0.00 | 0.00 | 0.00 | 71 | 1015.7 |
| 20260506171003 | 2 | 227 | 4.8 | 12.9 | 0.00 | 0.00 | 0.00 | 76 | 1015.7 |
| 20260506170501 | 2 | 106 | 4.8 | 12.9 | 0.00 | 0.00 | 0.00 | 74 | 1015.7 |
| 20260506170000 | 3 | 123 | 6.4 | 24.1 | 0.00 | 0.00 | 0.00 | 72 | 1015.8 |
| 20260506165502 | 2 | 127 | 6.4 | 24.1 | 0.00 | 0.00 | 0.00 | 74 | 1015.8 |
| 20260506165000 | 2 | 122 | 9.7 | 14.5 | 0.00 | 0.00 | 0.00 | 73 | 1015.8 |
| 20260506164503 | 3 | 127 | 3.2 | 11.3 | 0.00 | 0.00 | 0.00 | 70 | 1015.7 |
| 20260506164001 | 2 | 124 | 6.4 | 9.7 | 0.00 | 0.00 | 0.00 | 71 | 1015.8 |
| 20260506163501 | 2 | 144 | 3.2 | 16.1 | 0.00 | 0.00 | 0.00 | 73 | 1016.1 |
| 20260506163000 | 2 | 173 | 6.4 | 16.1 | 0.00 | 0.00 | 0.00 | 73 | 1015.8 |
| 20260506162501 | 2 | 110 | 9.7 | 16.1 | 0.00 | 0.00 | 0.00 | 71 | 1015.8 |
| 20260506161503 | 2 | 75 | 4.8 | 12.9 | 0.00 | 0.00 | 0.00 | 75 | 1015.9 |
| 20260506161001 | 2 | 107 | 3.2 | 9.7 | 0.00 | 0.00 | 0.00 | 73 | 1015.9 |
| 20260506160501 | 2 | 65 | 3.2 | 14.5 | 0.00 | 0.00 | 0.00 | 75 | 1016.1 |
| 20260506160001 | 2 | 126 | 4.8 | 14.5 | 0.00 | 0.00 | 0.00 | 74 | 1016.2 |
| 20260506155501 | 2 | 155 | 4.8 | 12.9 | 0.00 | 0.00 | 0.00 | 73 | 1015.9 |
| 20260506155001 | 2 | 94 | 3.2 | 14.5 | 0.00 | 0.00 | 0.00 | 77 | 1016.1 |
| 20260506153455 | 1 | 145 | 4.8 | 16.1 | 0.00 | 0.00 | 0.00 | 74 | 1015.8 |
| 20260506152953 | 2 | 90 | 3.2 | 16.1 | 0.00 | 0.00 | 0.00 | 73 | 1015.9 |
| 20260506152453 | 2 | 217 | 6.4 | 11.3 | 0.00 | 0.00 | 0.00 | 72 | 1015.9 |
| 20260506151953 | 2 | 154 | 3.2 | 14.5 | 0.00 | 0.00 | 0.00 | 72 | 1016.1 |
| 20260506151443 | 1 | 166 | 4.8 | 14.5 | 0.00 | 0.00 | 0.00 | 76 | 1016.1 |
| 20260506150943 | 1 | 134 | 8.0 | 14.5 | 0.00 | 0.00 | 0.00 | 77 | 1016.1 |
| 20260506150444 | 1 | 151 | 3.2 | 14.5 | 0.00 | 0.00 | 0.00 | 76 | 1016.2 |
| 20260506145942 | 1 | 175 | 8.0 | 12.9 | 0.00 | 0.00 | 0.00 | 74 | 1016.1 |
| 20260506145442 | 2 | 151 | 3.2 | 11.3 | 0.00 | 0.00 | 0.00 | 73 | 1015.9 |
| 20260506144944 | 1 | 157 | 4.8 | 12.9 | 0.00 | 0.00 | 0.00 | 74 | 1016.1 |
| 20260506144443 | 1 | 96 | 4.8 | 16.1 | 0.00 | 0.00 | 0.00 | 74 | 1016.2 |
| 20260506143442 | 1 | 94 | 3.2 | 9.7 | 0.00 | 0.00 | 0.00 | 74 | 1015.8 |
| 20260506142944 | 1 | 63 | 3.2 | 9.7 | 0.00 | 0.00 | 0.00 | 74 | 1015.9 |
| 20260506142442 | 2 | 55 | 8.0 | 8.0 | 0.00 | 0.00 | 0.00 | 73 | 1016.2 |
| 20260506141942 | 2 | 77 | 6.4 | 12.9 | 0.00 | 0.00 | 0.00 | 73 | 1015.9 |
| 20260506141442 | 1 | 72 | 4.8 | 12.9 | 0.00 | 0.00 | 0.00 | 74 | 1015.9 |
| 20260506140943 | 1 | 163 | 4.8 | 11.3 | 0.00 | 0.00 | 0.00 | 74 | 1015.9 |
| 20260506135441 | 1 | 151 | 4.8 | 14.5 | 0.00 | 0.00 | 0.00 | 72 | 1016.1 |
| 20260506134441 | 1 | 150 | 3.2 | 9.7 | 0.00 | 0.00 | 0.00 | 73 | 1015.8 |
| 20260506133956 | 1 | 90 | 1.6 | 11.3 | 0.00 | 0.00 | 0.00 | 74 | 1015.7 |
| 20260506133442 | 1 | 138 | 9.7 | 11.3 | 0.00 | 0.00 | 0.00 | 75 | 1015.9 |
| 20260506132942 | 1 | 111 | 6.4 | 11.3 | 0.00 | 0.00 | 0.00 | 75 | 1015.8 |
| 20260506132438 | 1 | 141 | 3.2 | 9.7 | 0.00 | 0.00 | 0.00 | 75 | 1016.2 |
| 20260506131937 | 1 | 148 | 3.2 | 8.0 | 0.00 | 0.00 | 0.00 | 75 | 1015.8 |
| 20260506131438 | 1 | 109 | 1.6 | 8.0 | 0.00 | 0.00 | 0.00 | 75 | 1015.8 |
| 20260506130437 | 0 | 64 | 6.4 | 12.9 | 0.00 | 0.00 | 0.00 | 76 | 1015.9 |
| 20260506125936 | 0 | 132 | 3.2 | 12.9 | 0.00 | 0.00 | 0.00 | 76 | 1015.6 |
| 20260506125430 | 0 | 99 | 9.7 | 14.5 | 0.00 | 0.00 | 0.00 | 76 | 1015.5 |
| 20260506124930 | 0 | 144 | 3.2 | 14.5 | 0.00 | 0.00 | 0.00 | 76 | 1015.6 |
| 20260506124431 | 0 | 99 | 3.2 | 6.4 | 0.00 | 0.00 | 0.00 | 77 | 1016.1 |
| 20260506123929 | 0 | 159 | 3.2 | 6.4 | 0.00 | 0.00 | 0.00 | 76 | 1015.5 |
| 20260506123431 | 0 | 111 | 4.8 | 8.0 | 0.00 | 0.00 | 0.00 | 77 | 1015.5 |
| 20260506122931 | 0 | 75 | 1.6 | 9.7 | 0.00 | 0.00 | 0.00 | 77 | 1015.2 |
| 20260506121929 | 0 | 114 | 3.2 | 9.7 | 0.00 | 0.00 | 0.00 | 77 | 1015.3 |
| 20260506121429 | 0 | 73 | 0.0 | 16.1 | 0.00 | 0.00 | 0.00 | 77 | 1015.3 |
| 20260506120930 | 0 | 130 | 6.4 | 16.1 | 0.00 | 0.00 | 0.00 | 77 | 1015.0 |
| 20260506115929 | 0 | 85 | 3.2 | 9.7 | 0.00 | 0.00 | 0.00 | 77 | 1015.1 |
| 20260506115429 | 0 | 77 | 1.6 | 9.7 | 0.00 | 0.00 | 0.00 | 77 | 1015.1 |
| 20260506113932 | 0 | 152 | 4.8 | 9.7 | 0.00 | 0.00 | 0.00 | 76 | 1015.1 |
| 20260506113430 | 0 | 127 | 3.2 | 9.7 | 0.00 | 0.00 | 0.00 | 77 | 1015.0 |
| 20260506112929 | 0 | 75 | 1.6 | 12.9 | 0.00 | 0.00 | 0.00 | 77 | 1014.9 |
| 20260506112429 | 0 | 90 | 3.2 | 12.9 | 0.00 | 0.00 | 0.00 | 76 | 1014.7 |
| 20260506111928 | 0 | 127 | 3.2 | 9.7 | 0.00 | 0.00 | 0.00 | 77 | 1014.8 |
| 20260506111430 | 0 | 90 | 4.8 | 9.7 | 0.00 | 0.00 | 0.00 | 76 | 1014.9 |
| 20260506110930 | 0 | 105 | 3.2 | 9.7 | 0.00 | 0.00 | 0.00 | 77 | 1014.7 |
| 20260506110431 | 0 | 80 | 3.2 | 8.0 | 0.00 | 0.00 | 0.00 | 76 | 1014.7 |
| 20260506105929 | 0 | 110 | 3.2 | 8.0 | 0.00 | 0.00 | 0.00 | 76 | 1014.7 |
| 20260506105429 | 0 | 151 | 0.0 | 6.4 | 0.00 | 0.00 | 0.00 | 76 | 1014.6 |
| 20260506104928 | 0 | 107 | 1.6 | 9.7 | 0.00 | 0.00 | 0.00 | 76 | 1014.7 |
| 20260506104429 | 0 | 103 | 1.6 | 9.7 | 0.00 | 0.00 | 0.00 | 76 | 1014.5 |
| 20260506103928 | 0 | 94 | 4.8 | 6.4 | 0.00 | 0.00 | 0.00 | 76 | 1014.7 |
| 20260506102929 | 0 | 109 | 0.0 | 6.4 | 0.00 | 0.00 | 0.00 | 76 | 1014.5 |
| 20260506102429 | 0 | 86 | 3.2 | 4.8 | 0.00 | 0.00 | 0.00 | 75 | 1014.6 |
| 20260506101928 | 0 | 103 | 3.2 | 6.4 | 0.00 | 0.00 | 0.00 | 75 | 1014.7 |
| 20260506101430 | 0 | 90 | 0.0 | 6.4 | 0.00 | 0.00 | 0.00 | 75 | 1014.6 |
| 20260506100431 | 0 | 90 | 0.0 | 4.8 | 0.00 | 0.00 | 0.00 | 75 | 1014.6 |
| 20260506095929 | 0 | 98 | 0.0 | 3.2 | 0.00 | 0.00 | 0.00 | 74 | 1014.7 |
| 20260506095429 | 0 | 90 | 0.0 | 6.4 | 0.00 | 0.00 | 0.00 | 74 | 1014.5 |
| 20260506094931 | 0 | 127 | 3.2 | 6.4 | 0.00 | 0.00 | 0.00 | 73 | 1014.6 |
| 20260506094430 | 0 | 159 | 3.2 | 6.4 | 0.00 | 0.00 | 0.00 | 73 | 1014.8 |
| 20260506093930 | 0 | 152 | 3.2 | 4.8 | 0.00 | 0.00 | 0.00 | 73 | 1014.5 |
| 20260506092929 | 0 | 112 | 3.2 | 4.8 | 0.00 | 0.00 | 0.00 | 73 | 1014.4 |